Location: Dal�� Lhota
(48.7500°N, 14.0167°E)
Time: 18:31:25
(UTC+00:00)

Explorer 7 - Pass Details

Date: 08 August 2021
Orbit: 484 x 676 km, 50.3° (Epoch: 21 September)

Event Time Altitude Azimuth Distance (km) Brightness Sun altitude
Rises 04:05:37 0° 271° (W) 2,553 9.6 1.9°
Reaches altitude 10° 04:07:46 10° 274° (W) 1,683 8.8 2.3°
Maximum altitude 04:11:33 68° 358° (N) 544 7.0 2.8°
Drops below altitude 10° 04:15:30 10° 82° (E) 1,754 11.4 3.4°
Sets 04:17:47 0° 85° (E) 2,673 12.2 3.8°
